This demonstration page uses our WeatherBlox Daily Observations layout. Learn more.

Left ArrowRight Arrow

Hourly Observations for May 13, 2021

Temp ( °F °C ) Dew Point ( °F °C ) Humidity (%) Winds ( mph kmh ) Pressure ( in mb ) Visibility ( mi km ) Precip ( " mm )
12:53 am 00:53 Clear 67 19.4 44 6.7 44 44 N 3 6 29.91 1013 10 16 0.00 0.00
1:53 am 01:53 Clear 66 18.9 45 7.2 47 47 N 5 7 29.92 1013 10 16 0.00 0.00
2:53 am 02:53 Clear 66 18.9 44 6.7 45 45 N 5 7 29.92 1013 10 16 0.00 0.00
3:53 am 03:53 Clear 64 17.8 45 7.2 50 50 Calm 29.93 1014 10 16 0.00 0.00
4:53 am 04:53 Clear 61 16.1 46 7.8 58 58 Calm 29.94 1014 10 16 0.00 0.00
5:53 am 05:53 Clear 58 14.4 46 7.8 65 65 Calm 29.95 1014 10 16 0.00 0.00
6:53 am 06:53 Sunny 59 15 47 8.3 64 64 Calm 29.97 1015 10 16 0.00 0.00
7:53 am 07:53 Sunny 67 19.4 45 7.2 45 45 Calm 29.97 1015 10 16 0.00 0.00
8:53 am 08:53 Sunny 72 22.2 47 8.3 41 41 Calm 29.98 1015 10 16 0.00 0.00
9:53 am 09:53 Sunny 77 25 47 8.3 35 35 VRB 3 6 29.97 1015 10 16 0.00 0.00
10:53 am 10:53 Sunny 82 27.8 45 7.2 27 27 Calm 29.96 1014 10 16 0.00 0.00
11:53 am 11:53 Sunny 85 29.4 42 5.6 22 22 Calm 29.94 1014 10 16 0.00 0.00
12:53 pm 12:53 Sunny 89 31.7 40 4.4 18 18 W 3 6 29.91 1013 10 16 0.00 0.00
1:53 pm 13:53 Sunny 91 32.8 39 3.9 16 16 VRB 5 7 29.89 1012 10 16 0.00 0.00
2:53 pm 14:53 Sunny 92 33.3 34 1.1 13 13 VRB 7 11 29.87 1011 10 16 0.00 0.00
3:53 pm 15:53 Sunny 93 33.9 37 2.8 14 14 VRB 5 7 29.84 1011 10 16 0.00 0.00
4:53 pm 16:53 Sunny 94 34.4 38 3.3 14 14 SSE 8 13 29.83 1010 10 16 0.00 0.00
5:53 pm 17:53 Sunny 94 34.4 34 1.1 12 12 SSE 12 19 29.81 1010 10 16 0.00 0.00
6:53 pm 18:53 Sunny 92 33.3 38 3.3 15 15 SSE 13 20 29.81 1009 10 16 0.00 0.00
7:53 pm 19:53 Sunny 85 29.4 41 5 21 21 SSE 7 11 29.82 1010 10 16 0.00 0.00
8:53 pm 20:53 Clear 80 26.7 43 6.1 27 27 SSE 7 11 29.83 1010 10 16 0.00 0.00
9:53 pm 21:53 Clear 75 23.9 46 7.8 36 36 Calm 29.85 1011 10 16 0.00 0.00
10:53 pm 22:53 Clear 74 23.3 45 7.2 36 36 NNE 5 7 29.86 1011 10 16 0.00 0.00
11:53 pm 23:53 Clear 73 22.8 44 6.7 35 35 NNW 3 6 29.87 1011 10 16 0.00 0.00

Powered by AerisWeather